GW6966 Weather Reports


time (UTC)temp
F
wind
direction
speed
knots
gust
knots
rain 1hr
in
rain 24hr
in
rain mn
in
humidity
%
barometer
mb
20260504204907 78 81 0.0 0.0 0.00 0.00 0.00 36 1014.6
20260504204405 78 133 0.0 0.0 0.00 0.00 0.00 38 1014.6
20260504203905 78 277 0.9 0.9 0.00 0.00 0.00 37 1014.6
20260504203401 78 95 0.0 0.0 0.00 0.00 0.00 37 1014.3
20260504202857 79 141 0.9 0.9 0.00 0.00 0.00 36 1014.4
20260504202354 78 123 0.0 0.0 0.00 0.00 0.00 39 1014.6
20260504201850 78 95 0.0 0.0 0.00 0.00 0.00 38 1014.8
20260504201348 78 95 0.0 0.0 0.00 0.00 0.00 36 1014.8
20260504200845 79 243 0.0 0.0 0.00 0.00 0.00 37 1014.9
20260504200342 79 269 0.0 0.0 0.00 0.00 0.00 36 1015.2
20260504195839 79 293 0.0 0.9 0.00 0.00 0.00 38 1015.0
20260504195334 78 292 0.0 0.9 0.00 0.00 0.00 34 1015.0
20260504194831 78 40 0.0 0.0 0.00 0.00 0.00 35 1015.2
20260504194327 78 134 0.0 0.0 0.00 0.00 0.00 36 1015.2
20260504193823 77 103 0.0 0.0 0.00 0.00 0.00 39 1015.3
20260504193321 77 26 0.0 0.0 0.00 0.00 0.00 38 1015.4
20260504192819 77 74 0.9 0.9 0.00 0.00 0.00 39 1015.5
20260504192317 76 127 0.0 0.0 0.00 0.00 0.00 38 1015.5
20260504191815 76 114 0.0 0.0 0.00 0.00 0.00 41 1015.5
20260504191313 76 83 0.0 0.0 0.00 0.00 0.00 38 1015.7
20260504190808 77 288 0.0 0.0 0.00 0.00 0.00 38 1015.8
20260504190304 78 169 0.9 0.9 0.00 0.00 0.00 36 1015.8
20260504185801 77 97 0.0 0.9 0.00 0.00 0.00 37 1015.9
20260504185258 77 268 0.0 0.0 0.00 0.00 0.00 39 1015.9
20260504184754 77 317 1.7 1.7 0.00 0.00 0.00 37 1015.9
20260504184249 77 231 0.0 0.0 0.00 0.00 0.00 40 1016.0
20260504183745 77 287 0.0 0.0 0.00 0.00 0.00 40 1016.2
20260504183242 77 210 0.0 0.0 0.00 0.00 0.00 41 1016.1
20260504182741 77 314 0.0 0.0 0.00 0.00 0.00 40 1016.1
20260504182237 77 294 0.0 0.0 0.00 0.00 0.00 43 1016.2
20260504181735 77 297 0.0 0.9 0.00 0.00 0.00 40 1016.4
20260504181232 77 127 0.0 0.9 0.00 0.00 0.00 41 1016.3
20260504180731 77 148 0.0 0.0 0.00 0.00 0.00 42 1016.4
20260504180230 76 84 0.0 0.0 0.00 0.00 0.00 43 1016.4
20260504175727 75 297 0.0 0.9 0.00 0.00 0.00 43 1016.6
20260504175223 75 245 0.9 0.9 0.00 0.00 0.00 42 1016.5
20260504174721 75 121 0.0 0.9 0.00 0.00 0.00 40 1016.8
20260504174220 76 105 0.0 0.0 0.00 0.00 0.00 43 1016.8
20260504173715 76 111 0.0 0.9 0.00 0.00 0.00 42 1016.8
20260504173213 76 179 0.0 0.0 0.00 0.00 0.00 43 1017.0
20260504172709 76 288 0.0 0.0 0.00 0.00 0.00 41 1016.9
20260504172206 76 224 0.0 0.0 0.00 0.00 0.00 40 1017.1
20260504171702 76 294 0.0 0.0 0.00 0.00 0.00 43 1017.2
20260504171159 76 148 0.0 0.0 0.00 0.00 0.00 42 1017.3
20260504170656 76 7 0.0 0.0 0.00 0.00 0.00 43 1017.3
20260504170154 76 281 0.0 0.0 0.00 0.00 0.00 42 1017.5
20260504160112 73 152 0.0 0.0 0.00 0.00 0.00 43 1018.1
20260504151039 71 177 0.0 0.9 0.00 0.00 0.00 43 1018.4
20260504150536 70 148 0.0 0.0 0.00 0.00 0.00 44 1018.5
20260504141002 65 247 0.9 0.9 0.00 0.00 0.00 49 1018.6
20260504140459 64 332 0.0 0.0 0.00 0.00 0.00 52 1018.6
20260504130423 54 295 0.0 0.0 0.00 0.00 0.00 82 1018.7
20260504110310 44 338 0.0 0.0 0.00 0.00 0.00 91 1018.4
20260504100228 0 0.0 0.0 0.00 0.00 0.00 1018.0
20260504081621 0 0.0 0.0 0.00 0.00 0.00 1018.0
20260504081117 0 0.0 0.0 0.00 0.00 0.00 1017.6
20260504080614 0 0.0 0.0 0.00 0.00 0.00 1018.2
20260504080110 0 0.0 0.0 0.00 0.00 0.00 1017.8
20260504050427 0 0.0 0.0 0.00 0.00 0.00 1018.8
20260504045924 0 0.0 0.0 0.00 0.00 0.00 1018.9
20260504045419 0 0.0 0.0 0.00 0.00 0.00 1018.8
20260504044916 0 0.0 0.0 0.00 0.00 0.00 1018.8
20260504044414 0 0.0 0.0 0.00 0.00 0.00 1018.8
20260504043911 0 0.0 0.0 0.00 0.00 0.00 1018.7
20260504043408 0 0.0 0.0 0.00 0.00 0.00 1018.7
20260504042905 0 0.0 0.0 0.00 0.00 0.00 1018.5
20260504042401 0 0.0 0.0 0.00 0.00 0.00 1018.9
20260504041858 0 0.0 0.0 0.00 0.00 0.00 1019.0
20260504041354 0 0.0 0.0 0.00 0.00 0.00 1018.8
20260504040850 0 0.0 0.0 0.00 0.00 0.00 1018.9
20260504040348 0 0.0 0.0 0.00 0.00 0.00 1018.8
20260504035843 0 0.0 0.0 0.00 0.00 0.00 1018.9
20260504035341 0 0.0 0.0 0.00 0.00 0.00 1018.8
20260504034838 0 0.0 0.0 0.00 0.00 0.00 1018.9
20260504034336 0 0.0 0.0 0.00 0.00 0.00 1019.0
20260504033832 0 0.0 0.0 0.00 0.00 0.00 1018.9
20260504033331 0 0.0 0.0 0.00 0.00 0.00 1019.1
20260504032827 0 0.0 0.0 0.00 0.00 0.00 1018.9
20260504032324 0 0.0 0.0 0.00 0.00 0.00 1019.0
20260504031821 0 0.0 0.0 0.00 0.00 0.00 1019.0
20260504031318 0 0.0 0.0 0.00 0.00 0.00 1018.9
20260504030814 0 0.0 0.0 0.00 0.00 0.00 1018.9
20260504030312 0 0.0 0.0 0.00 0.00 0.00 1019.0
20260504025808 0 0.0 0.0 0.00 0.00 0.00 1018.9
20260504025305 0 0.0 0.0 0.00 0.00 0.00 1018.8
20260504024801 0 0.0 0.0 0.00 0.00 0.00 1018.8
20260504024258 0 0.0 0.0 0.00 0.00 0.00 1019.0
20260504023755 0 0.0 0.0 0.00 0.00 0.00 1018.8
20260504023251 0 0.0 0.0 0.00 0.00 0.00 1018.6
20260504022747 56 338 0.0 0.0 0.00 0.00 0.00 61 1018.7
20260504022244 56 338 0.0 0.0 0.00 0.00 0.00 61 1018.7
20260504021741 0 0.0 0.0 0.00 0.00 0.00 1018.7
20260504021238 0 0.0 0.0 0.00 0.00 0.00 1018.5
20260504020735 0 0.0 0.0 0.00 0.00 0.00 1018.3
20260504020231 0 0.0 0.0 0.00 0.00 0.00 1018.3
20260504015727 0 0.0 0.0 0.00 0.00 0.00 1018.3
20260504015224 0 0.0 0.0 0.00 0.00 0.00 1018.2
20260504014720 0 0.0 0.0 0.00 0.00 0.00 1018.0
20260504014217 0 0.0 0.0 0.00 0.00 0.00 1018.2
20260504013714 0 0.0 0.0 0.00 0.00 0.00 1018.1
20260504013212 59 338 0.0 0.0 0.00 0.00 0.00 51 1018.2
20260504012708 59 338 0.0 0.0 0.00 0.00 0.00 51 1018.1
20260504012206 59 338 0.0 0.0 0.00 0.00 0.00 51 1017.8
20260504011703 60 338 0.0 0.0 0.00 0.00 0.00 50 1018.0
20260504011159 60 338 0.0 0.0 0.00 0.00 0.00 50 1017.7
20260504010655 60 338 0.0 0.0 0.00 0.00 0.00 48 1017.7
20260504010151 60 338 0.0 0.0 0.00 0.00 0.00 48 1018.0
20260504005648 0 0.0 0.0 0.00 0.00 0.00 1017.8
20260504005145 0 0.0 0.0 0.00 0.00 0.00 1017.6
20260504004643 0 0.0 0.0 0.00 0.00 0.00 1017.5
20260504004140 0 0.0 0.0 0.00 0.00 0.00 1017.4
20260504003636 0 0.0 0.0 0.00 0.00 0.00 1017.2
20260504003133 62 89 0.0 0.9 0.00 0.00 0.00 44 1017.3
20260504002630 62 89 0.0 0.9 0.00 0.00 0.00 44 1017.3
20260504002127 0 0.0 0.0 0.00 0.00 0.00 1017.4
20260504001625 0 0.0 0.0 0.00 0.00 0.00 1017.4
20260504001121 64 343 0.0 0.0 0.00 0.00 0.00 44 1017.3
20260504000618 64 343 0.0 0.0 0.00 0.00 0.00 44 1017.5
20260504000116 64 343 0.0 0.0 0.00 0.00 0.00 43 1017.3
20260503235614 65 47 0.0 0.0 0.00 0.00 0.00 42 1017.3
20260503235110 65 359 0.0 0.0 0.00 0.00 0.00 41 1017.2
20260503234608 65 306 0.0 0.0 0.00 0.00 0.00 44 1017.4
20260503234106 65 278 0.0 0.0 0.00 0.00 0.00 42 1017.1
20260503233603 66 130 0.0 0.0 0.00 0.00 0.00 41 1017.4
20260503233058 66 135 0.0 0.0 0.00 0.00 0.00 40 1017.3
20260503232555 66 67 0.0 0.0 0.00 0.00 0.00 40 1017.1
20260503232053 66 29 0.0 0.9 0.00 0.00 0.00 39 1017.4
20260503231551 67 162 0.0 0.0 0.00 0.00 0.00 38 1017.2
20260503231047 67 135 0.0 0.0 0.00 0.00 0.00 41 1017.2
20260503230543 67 327 0.0 0.0 0.00 0.00 0.00 40 1017.4
20260503230041 67 75 0.0 0.0 0.00 0.00 0.00 39 1017.3
20260503225538 67 41 0.9 0.9 0.00 0.00 0.00 43 1017.5
20260503225038 67 9 0.0 0.0 0.00 0.00 0.00 38 1017.5
20260503224536 68 55 0.0 0.0 0.00 0.00 0.00 38 1017.5
20260503224034 68 310 0.0 0.0 0.00 0.00 0.00 36 1017.4
20260503223532 68 303 0.0 0.9 0.00 0.00 0.00 37 1017.5
20260503223027 68 318 0.0 0.0 0.00 0.00 0.00 36 1017.4
20260503222526 68 36 0.0 0.0 0.00 0.00 0.00 36 1017.2
20260503222023 68 287 0.0 0.0 0.00 0.00 0.00 35 1017.3
20260503221521 68 359 0.0 0.0 0.00 0.00 0.00 38 1017.6
20260503221019 68 293 0.0 0.0 0.00 0.00 0.00 36 1017.5
20260503220514 68 340 0.0 0.0 0.00 0.00 0.00 38 1017.4
20260503220011 69 13 0.0 0.0 0.00 0.00 0.00 37 1017.3
20260503215509 69 323 0.0 0.0 0.00 0.00 0.00 36 1017.5
20260503215005 69 324 0.0 0.0 0.00 0.00 0.00 36 1017.7
20260503214504 69 13 0.0 0.9 0.00 0.00 0.00 35 1017.6
20260503214000 69 46 0.0 0.9 0.00 0.00 0.00 37 1017.4
20260503213459 69 338 0.0 0.0 0.00 0.00 0.00 37 1017.6
20260503212954 69 305 0.0 0.0 0.00 0.00 0.00 36 1017.4
20260503212452 69 67 0.0 0.0 0.00 0.00 0.00 36 1017.7
20260503211949 70 141 0.9 1.7 0.00 0.00 0.00 34 1017.6
20260503211447 70 291 0.0 0.0 0.00 0.00 0.00 36 1017.8
20260503210942 70 138 0.0 0.0 0.00 0.00 0.00 37 1017.8
20260503210439 70 255 0.0 0.0 0.00 0.00 0.00 35 1017.7
20260503205933 70 334 0.0 0.9 0.00 0.00 0.00 34 1017.8
20260503205431 70 157 0.0 0.9 0.00 0.00 0.00 36 1017.7